Location: Calvera
(42.3882°N, 0.6137°E)
Time: 20:10:21
(UTC+00:00)

Cosmos 1606 Rocket - Pass Details

Date: 28 October 2020
Orbit: 604 x 631 km, 82.5° (Epoch: 23 November)

Event Time Altitude Azimuth Distance (km) Brightness Sun altitude
Rises 04:49:56 0° 348° (NNW) 2,930 6.9 -18.3°
Reaches altitude 10° 04:52:11 10° 346° (NNW) 2,020 6.0 -17.9°
Maximum altitude 04:56:37 64° 265° (W) 700 3.5 -17.1°
Drops below altitude 10° 05:01:01 10° 184° (S) 2,004 6.2 -16.3°
Sets 05:03:15 0° 181° (S) 2,905 7.0 -15.9°
